HST 1 20580U 90037B 26255.21903661 .00004906 00000+0 14867-3 0 9999 2 20580 28.4730 205.3366 0001795 39.5104 320.5623 15.31621652801923 POLAR 1 23802U 96013A 26254.30444700 .00000104 00000+0 00000+0 0 9998 2 23802 79.9820 226.0171 6558290 206.1267 95.8749 1.29845775145976 SWAS 1 25560U 98071A 26255.26805825 .00002692 00000+0 17137-3 0 9999 2 25560 69.8982 2.8729 0003309 147.0198 213.1174 15.10080214510417 CXO 1 25867U 99040B 26256.64753561 .00000750 00000+0 00000+0 0 9998 2 25867 57.3946 114.3238 7696466 309.4554 0.6118 0.37808225017661 XMM-NEWTON 1 25989U 99066A 26257.11030920 .00000050 00000+0 00000+0 0 9994 2 25989 64.0154 281.8333 4649133 63.3176 0.1184 0.50126814023454 TERRA 1 25994U 99068A 26255.25868729 .00000231 00000+0 55821-4 0 9998 2 25994 97.9374 301.3181 0001553 353.3189 48.7649 14.61158690422325 TIMED 1 26998U 01055B 26255.18064071 .00000855 00000+0 80929-4 0 9991 2 26998 74.0665 59.8333 0001943 237.2040 122.8958 14.95450248343827 CORIOLIS 1 27640U 03001A 26255.00937041 .00000074 00000+0 55517-4 0 9994 2 27640 98.7167 260.5837 0013377 327.1181 32.9162 14.19965807226546 SORCE 1 27651U 03004A 26255.13007058 .00001879 00000+0 14367-3 0 9990 2 27651 39.9900 125.4775 0018437 312.8964 47.0283 15.04097885284993 MOST 1 27843U 03031D 26255.29158568 .00000034 00000+0 35652-4 0 9996 2 27843 98.7081 261.8151 0009963 7.7134 352.4194 14.21337390203086 SCISAT 1 1 27858U 03036A 26255.26866044 .00000428 00000+0 59197-4 0 9996 2 27858 73.9324 358.3078 0006565 32.7106 327.4476 14.81535573244347 SWIFT 1 28485U 04047A 26255.24871021 .00130959 00000+0 65200-3 0 9999 2 28485 20.5507 228.4892 0002139 171.2867 188.7618 15.80115486200594 HINODE (SOLAR-B) 1 29479U 06041A 26255.05056483 .00000385 00000+0 74463-4 0 9996 2 29479 98.0551 269.9280 0017788 17.0320 343.1479 14.68718320067623 SHIJIAN-6 02A (SJ-6 02A) 1 29505U 06046A 26255.27040852 .00004363 00000+0 21941-3 0 9990 2 29505 97.6285 297.0105 0002859 167.8392 192.2911 15.17779810085479 SHIJIAN-6 02B (SJ-6 02B) 1 29506U 06046B 26255.31670816 .00000246 00000+0 23670-4 0 9993 2 29506 97.6994 283.7834 0016096 133.6423 226.6139 15.01476579083811 FGRST (GLAST) 1 33053U 08029A 26255.30340639 .00002452 00000+0 83961-4 0 9994 2 33053 25.5830 319.4079 0007464 274.8901 85.0785 15.24338581008993 SDO 1 36395U 10005A 26255.06008066 -.00000068 00000+0 00000+0 0 9991 2 36395 34.8306 85.0195 0001725 72.3988 113.6531 1.00274865060933 CRYOSAT 2 1 36508U 10013A 26255.26547966 .00000059 00000+0 13858-4 0 9994 2 36508 92.0283 298.4493 0002398 84.6601 275.4880 14.51904265870718 X-SAT 1 37389U 11015C 26255.20941654 -.00000073 00000+0 13729-4 0 9995 2 37389 98.3613 228.1300 0015288 87.1147 273.1783 14.25227034800076 GCOM-W1 (SHIZUKU) 1 38337U 12025A 26255.33071192 .00000294 00000+0 75198-4 0 9998 2 38337 98.2063 194.5789 0001478 87.2935 74.2461 14.57132154761721 NUSTAR 1 38358U 12031A 26255.33335647 .00002027 00000+0 70554-4 0 9993 2 38358 6.0271 100.0747 0008757 318.8050 50.8558 15.09519641001302 NEOSSAT 1 39089U 13009D 26255.03808088 .00000089 00000+0 45653-4 0 9990 2 39089 98.4225 73.0349 0010842 354.0028 6.1026 14.35852381709207 BRITE-AUSTRIA 1 39091U 13009F 26255.06304167 .00000098 00000+0 47801-4 0 9992 2 39091 98.4046 72.3795 0009876 347.7117 12.3827 14.36570644709524 IRIS 1 39197U 13033A 26255.29985946 .00000644 00000+0 79622-4 0 9994 2 39197 97.9282 94.2995 0025274 36.5528 323.7406 14.86032228713311 HISAKI (SPRINT-A) 1 39253U 13049A 26255.03401707 .00000112 00000+0 65412-4 0 9996 2 39253 29.7188 138.4712 0136490 0.8446 359.2340 13.55550441643215 CASSIOPE 1 39265U 13055A 26255.24791750 .00037946 58429-6 37877-3 0 9992 2 39265 80.9139 320.5083 0270295 127.5442 235.0690 15.31351897680965 STSAT-3 1 39422U 13066G 26255.32832325 .00002989 00000+0 22542-3 0 9999 2 39422 97.6309 223.8664 0010780 97.9076 262.3373 15.03168992697294 SWARM B 1 39451U 13067A 26255.25624994 .00002299 00000+0 80343-4 0 9993 2 39451 87.7445 315.8802 0003457 91.0145 269.1501 15.29026961696540 SWARM A 1 39452U 13067B 26255.33898899 .00008795 00000+0 15238-3 0 9997 2 39452 87.3354 23.8574 0002345 99.2125 260.9401 15.50718113719759 SWARM C 1 39453U 13067C 26255.33887684 .00008465 00000+0 14665-3 0 9995 2 39453 87.3358 22.4403 0002348 99.5260 260.6267 15.50716618719717 BRITE-CA1 (TORONTO) 1 40020U 14033L 26255.13865700 .00000436 00000+0 73123-4 0 9999 2 40020 97.9852 22.5213 0078349 359.5828 0.5301 14.72810461655014 OCO 2 1 40059U 14035A 26255.15918823 .00000249 00000+0 65410-4 0 9992 2 40059 98.2062 195.1438 0001674 80.3099 279.8288 14.57087933648712 BRITE-PL2 (HEWELIUSZ) 1 40119U 14049B 26255.13141642 .00001745 00000+0 16542-3 0 9992 2 40119 97.9165 7.8481 0014047 175.1387 184.9972 14.94848763654436 MMS 1 1 40482U 15011A 26255.33335647 -.00001792 00000+0 00000+0 0 9998 2 40482 72.9221 347.7877 8259914 169.3357 188.1776 0.28342593001407 MMS 2 1 40483U 15011B 26255.33335647 -.00001793 00000+0 00000+0 0 9990 2 40483 72.9265 347.7866 8262750 169.3371 188.1566 0.28342545001406 MMS 3 1 40484U 15011C 26255.33335647 -.00001793 00000+0 00000+0 0 9991 2 40484 72.9269 347.7986 8261198 169.3458 188.1309 0.28342646001402 MMS 4 1 40485U 15011D 26255.33335647 -.00001793 00000+0 00000+0 0 9992 2 40485 72.9197 347.7826 8261190 169.3555 188.1263 0.28342531001408 ASTROSAT 1 40930U 15052A 26254.80305094 .00001338 00000+0 80889-4 0 9998 2 40930 5.9967 251.8326 0007946 195.9703 164.0174 14.82637343592708 DAMPE 1 41173U 15078A 26255.29840299 .00000776 00000+0 28477-4 0 9991 2 41173 97.4592 261.2229 0013263 121.6003 238.6534 15.30971272597870 PISAT 1 41784U 16059B 26255.25942265 .00000631 00000+0 11492-3 0 9999 2 41784 97.8244 252.0036 0027539 288.4502 71.3712 14.69120723532526 HXMT (HUIYAN) 1 42758U 17034A 26255.14119067 .00003520 00000+0 17389-3 0 9990 2 42758 43.0145 58.6158 0031975 334.7522 25.1763 15.19110868510885 FLYING LAPTOP 1 42831U 17042G 26255.29319928 .00001599 00000+0 12760-3 0 9997 2 42831 97.4996 47.7012 0016221 183.7209 176.3898 15.01579794499526 ZHANGHENG 1-01 (CSES-1) 1 43194U 18015C 26255.31724818 .00004356 00000+0 20168-3 0 9997 2 43194 97.6953 62.7536 0013786 339.0201 21.0466 15.20589907477883 SALSAT 1 46495U 20068K 26254.97802253 .00005968 00000+0 20261-3 0 9990 2 46495 97.8880 263.4175 0009470 9.1845 350.9566 15.30885844328637 IXPE 1 49954U 21121A 26255.33335647 .00008129 00000+0 41881-3 0 9996 2 49954 0.2305 18.1297 0007260 321.2451 28.4444 15.10948202005445 SMILE 1 69123U 26109A 26251.80768775 .00000485 00000+0 00000+0 0 9998 2 69123 70.0169 206.2692 8186954 285.8683 5.3377 0.47517332000348